Regional Weather Roundup
Issued by NWS

Home | Current Version | Previous Version | Text Only | Print | Product List | Glossary Off
Versions: 1 2 3 4 5 6 7 8 9 10 11 12 13 14 15 16 17 18 19 20 21 22 23 24 25 26 27 28 29 30 31 32 33 34 35 36 37 38 39 40 41 42 43 44 45 46 47 48 49 50

000
ASUS43 KDTX 252210
RWRMI
MICHIGAN HOURLY REGIONAL WEATHER ROUNDUP
NATIONAL WEATHER SERVICE DETROIT/PONTIAC MI
600 PM EDT WED MAY 25 2016

NOTE: "FAIR" INDICATES FEW OR NO CLOUDS BELOW 12,000 FEET WITH NO
SIGNIFICANT WEATHER AND/OR OBSTRUCTION TO VISIBILITY.

MIZ047>049-052>055-059>063-066>070-074>076-081>083-252300-
SOUTHEAST LOWER MICHIGAN

CITY           SKY/WX    TMP DP  RH WIND       PRES   REMARKS
ADRIAN         MOSUNNY   82  57  42 S13G20    30.01F
ALMA           SUNNY     84  54  35 S8G21     29.95F
ANN ARBOR      MOSUNNY   80  59  48 S10       30.00F
BAD AXE        CLOUDY    72  55  55 E7        30.02S
CARO           CLOUDY    85  54  35 SW3       29.97S
DETROIT CITY   MOSUNNY   82  59  45 SW14      30.01F
DETROIT        CLOUDY    83  58  42 S16       30.02F
FLINT          MOSUNNY   87  58  37 S12       29.98F
GROSSE ILE     MOSUNNY   73  64  73 S8        30.02S
HILLSDALE      MOSUNNY   82  50  32 S8        30.01F
HOWELL         MOSUNNY   83  57  41 S8        29.99F

CITY           SKY/WX    TMP DP  RH WIND       PRES   REMARKS
JACKSON        MOSUNNY   82  58  43 S12       29.99F
LAMBERTVILLE   CLOUDY    83  59  44 SE7       30.03F
LANSING        PTSUNNY   83  60  45 S12       29.97F
LAPEER         FAIR      84  54  35 SW6       29.99F
MASON          PTSUNNY   83  58  42 S7G18     29.98F
MONROE         CLOUDY    81  62  51 S12G21    30.01F
MT. CLEMENS    PTSUNNY   81  61  51 S16       30.00F
PONTIAC        PTSUNNY   83  57  41 SW13      30.00F
PORT HOPE        N/A     57  53  86 E9        30.02F
PORT HURON     MOSUNNY   82  57  42 S14G20    30.01S
TRI CITIES     PTSUNNY   84  60  44 NE12      29.96F
MIDLAND        FAIR      80  62  55 NE9       29.96S
TROY           MOSUNNY   85  58  39 S14G20    30.02F
SAGINAW HB     CLOUDY    86  50  28 S8        29.96F
$$
MIZ043>046-050>051-056>058-064>065-071>073-077>080-252300-
SOUTHWEST LOWER MICHIGAN

CITY           SKY/WX    TMP DP  RH WIND       PRES   REMARKS
BATTLE CREEK   MOSUNNY   82  59  45 S14       29.97F
BENTON HARBOR  MOSUNNY   86  60  41 SE9       29.91F
BIG RAPIDS     RAIN      78  61  56 SW8       29.95R
COLDWATER      CLOUDY    81  57  43 S6        29.98F
FREMONT        FAIR      83  60  44 W6        29.93F
HOLLAND        MOSUNNY   83  62  49 CALM      29.93F
GRAND RAPIDS   PTSUNNY   88  59  37 S14G23    29.94F
IONIA          PTSUNNY   84  56  37 SE14      29.95S
KALAMAZOO      MOSUNNY   85  58  39 S9        29.95F
LUDINGTON      MOSUNNY   75  63  65 CALM      29.94F
MARSHALL       MOSUNNY   83  59  43 S9        29.97F
MOUNT PLEASANT PTSUNNY   85  56  36 S9        29.95S
MUSKEGON       PTSUNNY   81  60  48 SW3       29.92F
SOUTH HAVEN    MOSUNNY   85  58  39 S5        29.92F
$$
MIZ016>042-252300-
NORTHERN LOWER MICHIGAN

CITY           SKY/WX    TMP DP  RH WIND       PRES   REMARKS
ALPENA         SUNNY     65  54  67 E9        30.05S
BEAVER ISLAND  SUNNY     67  56  66 E13G18    29.99F
BELLAIRE       MOSUNNY   82  61  49 NE9       29.95F
CADILLAC       LGT RAIN  69  64  83 E3        29.98F
CHARLEVOIX     SUNNY     74  59  58 NE10      30.00F
FRANKFORT      MOSUNNY   80  61  51 NE6       29.93F
GAYLORD        MOSUNNY   78  59  51 NE13G20   30.00F
GRAYLING       LGT RAIN  77  61  57 NE9       30.00R
HARBOR SPRINGS SUNNY     73  58  59 E16G22    29.99F
HOUGHTON LAKE  TSTM      64  61  90 NW12      30.04R FOG
MANISTEE       MOSUNNY   79  61  53 W3        29.95F
OSCODA         CLOUDY    61  53  75 E8        30.04S
PELLSTON       SUNNY     73  56  54 E10       30.01F
ROGERS CITY    MOSUNNY   63  56  76 E8        30.05S
TRAVERSE CITY  PTSUNNY   77  58  51 W7        29.96F
$$
MIZ007>008-015-252300-
EASTERN UPPER MICHIGAN

CITY           SKY/WX    TMP DP  RH WIND       PRES   REMARKS
KINROSS          N/A     73  54  49 E9        30.02F
MACKINAC ISLAN SUNNY     66  54  65 E10G18    30.02F
NEWBERRY       SUNNY     72  60  64 E7        29.99F
S. S. MARIE    SUNNY     74  54  49 S8        30.03F
MUNISING         N/A     50  46  86 NE9       30.01F
$$
MIZ004>006-011>014-085-252300-
CENTRAL UPPER MICHIGAN

CITY           SKY/WX    TMP DP  RH WIND       PRES   REMARKS
MANISTIQUE     SUNNY     67  59  74 SE9       29.99F
ESCANABA       SUNNY     66  57  72 SE8       29.96F
MENOMINEE      MOSUNNY   60  56  86 E10       29.98F
SAWYER-GWINN   SUNNY     59  52  77 NE10      30.01F
$$
MIZ001>003-009>011-084-252300-
WESTERN UPPER MICHIGAN

CITY           SKY/WX    TMP DP  RH WIND       PRES   REMARKS
IRON MOUNTAIN  PTSUNNY   74  57  55 SE10G18   29.95S
HOUGHTON       MOSUNNY   52  46  80 E12       29.99F
COPPER HARBOR    N/A     52  45  77 S7        30.01F
IRONWOOD       CLOUDY    75  54  46 SE10      29.85F
$$

ABBREVIATIONS USED IN REMARKS
   TC - TEMPERATURE IN CELSIUS
  WCI - WIND CHILL INDEX
   HX - HEAT INDEX
  VSB - VISIBILITY





USA.gov is the U.S. government's official web portal to all federal, state and local government web resources and services.